Regional Weather Roundup
Issued by NWS Memphis, TN

Home | Current Version | Previous Version | Text Only | Print | Product List | Glossary On
Versions: 1 2 3 4 5 6 7 8 9 10 11 12 13 14 15 16 17 18 19 20 21 22 23 24 25 26 27 28 29 30 31 32 33 34 35 36 37 38 39 40 41 42 43 44 45 46 47 48 49 50
000
ASUS44 KMEG 211810
RWRMEG
MEMPHIS CWA HOURLY WEATHER ROUNDUP
NATIONAL WEATHER SERVICE MEMPHIS TN
100 PM CDT THU AUG 21 2014

...WEST TENNESSEE...

CITY           SKY/WX    TMP DP  RH WIND       PRES   REMARKS
MEMPHIS INTL   PTSUNNY   91  73  55 SW8       30.11S HX  99
6HR MIN TEMP:  77; 6HR MAX TEMP:  92;

NWS MEMPHIS      N/A     90 N/A N/A MISG        N/A
JACKSON        SUNNY     90  73  57 SW8       30.11F HX  98
6HR MIN TEMP:  75; 6HR MAX TEMP:  90;

LEXINGTON      SUNNY     91  72  52 SW9       30.11F HX  98
SAVANNAH       MOSUNNY   90  75  62 W9        30.13F HX 100
DYERSBURG      SUNNY     90  70  51 SW10      30.10S HX  95
6HR MIN TEMP:  75; 6HR MAX TEMP:  90;

UNION CITY     SUNNY     90  75  62 SW9       30.08F HX 100
PARIS          SUNNY     90  72  55 SW10      30.10F HX  96
HUNTINGDON     SUNNY     89  72  57 SW9       30.10F HX  96


...EASTERN ARKANSAS...

CITY           SKY/WX    TMP DP  RH WIND       PRES   REMARKS
JONESBORO      SUNNY     93  73  52 W16G23    30.06F HX 102
6HR MIN TEMP:  75; 6HR MAX TEMP:  93;

WEST MEMPHIS   MOSUNNY   90  76  63 SW7       30.08F HX 101
6HR MIN TEMP:  74; 6HR MAX TEMP:  90;

BATESVILLE     SUNNY     93  72  49 SW14      30.06F HX 100
6HR MIN TEMP:  77; 6HR MAX TEMP:  93;

NEWPORT        MOSUNNY   93  74  54 S10       30.07F HX 102
6HR MIN TEMP:  75; 6HR MAX TEMP:  93;

WALNUT RIDGE   SUNNY     91  72  52 SW15      30.04F HX  98
6HR MIN TEMP:  73; 6HR MAX TEMP:  91;

BLYTHEVILLE    MOSUNNY   89  78  70 SW12G18   30.08F HX 103
6HR MIN TEMP:  76; 6HR MAX TEMP:  89;

SEARCY           N/A     92  74  55 CALM        N/A  HX 101
6HR MIN TEMP:  73; 6HR MAX TEMP:  92;

STUTTGART      SUNNY     91  75  59 SW9       30.10S HX 102
6HR MIN TEMP:  73; 6HR MAX TEMP:  91;

PINE BLUFF     MOSUNNY   91  73  55 SW10      30.09F HX  99
6HR MIN TEMP:  73; 6HR MAX TEMP:  91;

MONTICELLO     PTSUNNY   90  75  61 SW9       30.10S HX 100
6HR MIN TEMP:  77; 6HR MAX TEMP:  90;



...NORTH MISSISSIPPI...

CITY           SKY/WX    TMP DP  RH WIND       PRES   REMARKS
TUPELO         PTSUNNY   91  71  51 W6        30.12F HX  97
6HR MIN TEMP:  75; 6HR MAX TEMP:  93;

OLIVE BRANCH   PTSUNNY   90  75  62 SW12      30.12S HX 100
CLARKSDALE     SUNNY     90  77  66 SW3       30.12S HX 102
CORINTH        MOSUNNY   90  73  58 SW8       30.12F HX  98
GRENADA        MOSUNNY   91  72  52 SW6       30.13S HX  98
GREENWOOD      MOSUNNY   91  74  57 S7        30.12F HX 100
6HR MIN TEMP:  73; 6HR MAX TEMP:  91;

COLUMBUS       SUNNY     92  73  52 NW6       30.13F HX 100
6HR MIN TEMP:  73; 6HR MAX TEMP:  92; 6HR PCP: TRACE;

STARKVILLE     FAIR      91  70  49 CALM      30.13F HX  97
GOLDEN TRIANGL MOSUNNY   93  73  52 NW6       30.14F HX 102


...SOUTHEAST MISSOURI...

CITY           SKY/WX    TMP DP  RH WIND       PRES   REMARKS
WEST PLAINS    MOSUNNY   89  70  53 SW9       30.08F HX  94
6HR MIN TEMP:  74; 6HR MAX TEMP:  90;

POPLAR BLUFF   SUNNY     92  72  51 SW9       30.03F HX  99
6HR MIN TEMP:  73; 6HR MAX TEMP:  92;

CAPE GIRARDEAU SUNNY     89  75  63 SW10      30.04F HX  99
6HR MIN TEMP:  75; 6HR MAX TEMP:  90;



...NORTHWEST ALABAMA...

CITY           SKY/WX    TMP DP  RH WIND       PRES   REMARKS
MUSCLE SHOALS  MOSUNNY   91  73  55 W7        30.15S HX  99
6HR MIN TEMP:  72; 6HR MAX TEMP:  91;



...MIDDLE TENNESSEE...

CITY           SKY/WX    TMP DP  RH WIND       PRES   REMARKS
NASHVILLE      MOSUNNY   92  72  51 SW7       30.13F HX  99
6HR MIN TEMP:  71; 6HR MAX TEMP:  92;

CLARKSVILLE    MOSUNNY   91  71  51 SW8       30.09F HX  97
6HR MIN TEMP:  71; 6HR MAX TEMP:  91;

COLUMBIA       SUNNY     91  72  52 W8        30.13S HX  98
LEWISBURG      MOSUNNY   91  71  51 W5        30.15S HX  97


...WESTERN KENTUCKY...

CITY           SKY/WX    TMP DP  RH WIND       PRES   REMARKS
PADUCAH        SUNNY     92  71  50 SW10      30.06F HX  98
6HR MIN TEMP:  78; 6HR MAX TEMP:  93;

FORT CAMPBELL  SUNNY     91  72  53 W12       30.09F HX  98
6HR MIN TEMP:  71; 6HR MAX TEMP:  91;



...CENTRAL ARKANSAS...

CITY           SKY/WX    TMP DP  RH WIND       PRES   REMARKS
LITTLE ROCK    MOSUNNY   90  69  50 SW12G20   30.09S HX  94
6HR MIN TEMP:  74; 6HR MAX TEMP:  91;



SKY/WX REPORTED AS FAIR MEANS FEW OR NO CLOUDS BELOW
12 THOUSAND FEET.



USA.gov is the U.S. government's official web portal to all federal, state and local government web resources and services.